Location: Assche-ter-Heiden
(50.9174°N, 4.1574°E)
Time: 10:14:59
(UTC+00:00)

Cosmos 2369 Rocket - Pass Details

Date: 20 January 2020
Orbit: 827 x 854 km, 71.0° (Epoch: 18 February)

Event Time Altitude Azimuth Distance (km) Brightness Sun altitude
Exits shadow 06:46:18 - 328° (NNW) 3,090 4.6 -7.8°
Reaches altitude 10° 06:50:54 10° 8° (N) 2,479 4.5 -7.1°
Maximum altitude 06:51:06 10° 10° (N) 2,478 4.5 -7.1°
Drops below altitude 10° 06:51:16 10° 12° (NNE) 2,479 4.5 -7.0°
Sets 06:57:13 0° 60° (ENE) 3,422 5.9 -6.2°
